Location: Pinhead Observatory
(34.4473°N, 118.1985°W)
Time: 07:30:31
(UTC-07:00)

Daily predictions for brighter satellites

Satellite Brightness Start Highest point End
(mag) Time Altitude Azimuth Time Altitude Azimuth Time Altitude Azimuth
Aureole 2 Rocket 3.6 20:21:53 10° SSE 20:25:22 28° ESE 20:28:37 10° NE
GEOS 3 Rocket 4.0 20:20:50 10° SE 20:25:56 53° NE 20:31:01 10° NNW
ALOS 2.3 20:25:12 10° SSE 20:29:49 66° ENE 20:34:27 10° N
Cosmos 2237 Rocket 3.6 20:25:05 10° SW 20:30:25 44° WNW 20:35:49 10° N
deb Chang Zheng 4 4.1 20:29:36 10° NNE 20:33:43 38° E 20:37:47 10° SSE
ATLAS CENTAUR R/B 3.9 20:37:11 10° WSW 20:41:37 32° NW 20:46:08 10° N
Cosmos 2278 Rocket 2.6 20:36:24 10° NNW 20:42:02 67° WSW 20:47:38 10° S
Cosmos 1606 Rocket 3.5 20:37:42 10° N 20:42:09 74° E 20:46:31 10° SSE
CZ-2D R/B 3.7 20:40:35 10° S 20:44:26 64° W 20:48:19 10° NNW
Cosmos 1331 Rocket 4.1 20:40:23 10° N 20:45:31 57° ENE 20:50:28 11° SSE
H-2A R/B 2.6 20:42:31 10° SE 20:46:21 39° ENE 20:50:23 10° N
Atlas Centaur 2 3.2 20:41:46 10° SW 20:48:39 47° SSE 20:56:35 10° E
SeaSat 1 3.9 20:47:09 11° ESE 20:50:47 23° NE 20:54:38 10° N
Cosmos 1666 3.6 20:49:18 10° NNE 20:52:51 33° E 20:55:25 16° SE
Cosmos 1626 Rocket 4.3 20:50:44 10° SSE 20:54:44 34° E 20:58:45 10° NNE
Cosmos 1939 Rocket 3.7 20:53:33 15° SE 20:56:33 36° ENE 21:00:22 10° N
SL-16 R/B 2.8 20:52:40 10° SSW 20:58:14 61° WNW 21:03:50 10° NNE
Lacrosse 5 rocket 4.4 21:03:37 10° WNW 21:06:07 16° NW 21:08:41 10° N
OAO 3 Copernicus 4.3 21:01:21 10° W 21:06:25 86° S 21:10:17 17° ESE
Cosmos 1743 3.5 21:03:13 10° NNW 21:06:58 52° W 21:10:40 10° S
COSMOS 2455 3.2 21:01:41 10° S 21:07:15 41° ESE 21:12:51 10° NE
Cosmos 2228 3.1 21:04:30 10° N 21:08:53 59° E 21:12:02 18° SSE
APEX 3.9 21:10:29 10° NNW 21:14:43 60° ENE 21:18:07 22° SE
USA 186 4.0 21:12:37 10° SSW 21:14:53 20° W 21:17:04 10° NW
BREEZE-M DEB (TANK) 2.3 21:16:39 10° NW 21:18:54 42° NE 21:19:20 35° ENE
ATLAS 3B R/B 3.6 21:14:51 10° S 21:21:29 33° ESE 21:28:04 10° NE
ERS-1 Rocket 3.3 21:16:59 11° S 21:21:49 67° WSW 21:26:49 10° NNW
Abrixas rocket 2.9 21:19:46 10° NW 21:23:06 48° NE 21:24:24 30° E
Envisat 3.0 21:22:53 22° SSE 21:26:05 67° ENE 21:31:09 10° N
Cosmos 1603 3.6 21:21:33 10° SSW 21:27:10 87° ESE 21:32:48 10° NNE
Cosmos 1891 Rocket 4.4 21:24:37 10° N 21:30:45 87° E 21:35:22 18° S
Lacrosse 4 Rocket 3.6 21:35:27 11° ENE 21:35:27 11° ENE 21:35:44 10° ENE
YAOGAN 6 3.5 21:36:50 32° E 21:37:10 33° ENE 21:40:34 10° N
USA 234 4.0 21:33:17 19° E 21:37:40 43° NE 21:43:47 10° NNW
CZ-2C R/B 3.4 21:36:35 10° SW 21:37:47 13° W 21:39:01 10° WNW
ISS -3.3 21:34:37 10° SW 21:37:52 81° NW 21:41:08 10° NE
PSLV R/B 4.4 21:35:43 10° W 21:39:09 45° NNW 21:42:18 12° NE
UNK 4.2 21:43:52 10° NNE 21:49:20 85° WNW 21:54:53 11° SSW
Cosmos 1943 3.3 21:49:02 30° S 21:51:38 55° ESE 21:57:10 10° NNE
Tsikada Rocket 4.3 21:45:58 10° SSW 21:52:21 71° W 21:58:44 10° N
CZ-4 SHROUD 3.9 21:52:22 43° SW 21:52:51 48° W 21:55:56 10° NNW
Delta 168 4.4 21:49:47 10° SW 21:51:49 22° SSW 21:51:49 22° SSW
CZ-4 R/B 4.0 21:48:24 10° NNE 21:53:18 56° E 21:54:39 42° SSE
Timation 1 Rocket 4.4 21:47:38 10° NNW 21:53:39 78° WSW 21:56:28 33° S
Cosmos 1461 2.7 21:50:11 10° NNW 21:54:26 84° WSW 21:55:10 59° SSE
Cosmos 1238 4.4 21:55:12 66° WSW 21:55:27 71° W 21:58:28 10° N
Milstar 3 Cent rocket 3.4 21:50:33 10° W 21:55:49 24° SSW 21:56:45 23° SSW
SPOT 5 2.9 21:54:49 34° S 21:56:36 64° WSW 22:00:55 10° NNW
MetOp-A 4.1 21:58:02 37° S 22:00:15 86° WSW 22:05:38 10° NNW
Cosmos 1943 Rocket 4.2 22:00:51 10° NNE 22:03:36 14° NE 22:05:02 13° ENE
Cosmos 1825 Rocket 3.5 22:03:51 62° SE 22:04:22 70° E 22:08:48 10° NNE
SL-08 RB Rocket 4.1 22:05:28 45° E 22:05:46 46° ENE 22:10:07 10° N
Cosmos 1992 Rocket 4.1 22:02:21 10° N 22:07:30 56° ENE 22:08:21 49° ESE
H-2A R/B 3.1 22:09:27 28° ENE 22:09:42 28° ENE 22:13:57 10° NNE
Cosmos 1812 Rocket 4.2 22:09:23 10° NNW 22:13:39 52° W 22:14:49 40° SW
SPOT 1/Viking Rocket 3.5 22:17:00 54° S 22:18:12 82° WSW 22:23:23 10° NNW
Terra 2.9 22:18:26 31° ENE 22:18:26 31° ENE 22:22:26 10° N
Cosmos 1190 Rocket 3.9 22:20:43 51° SSW 22:22:08 89° E 22:27:28 10° NNE
USA 245 4.4 22:20:45 43° S 22:22:49 74° WSW 22:28:18 10° NNW
Geosat 3.9 22:18:09 10° NNE 22:23:13 89° ESE 22:24:33 50° SSW
CZ-4C R/B 3.7 22:24:36 60° NE 22:24:36 60° NE 22:28:19 10° N
Cosmos 2142 Rocket 4.4 22:19:08 10° N 22:25:27 82° E 22:26:59 54° SSE
SeaSat 1 3.3 22:26:57 35° SW 22:28:03 40° WSW 22:32:40 10° NW
ARGOS 3.2 22:33:36 60° SSW 22:34:30 74° WSW 22:39:56 10° NNW
DMSP B5D2-2 4.4 22:29:46 10° NNE 22:34:23 52° ENE 22:34:23 52° ENE
Cosmos 1634 Rocket 4.0 22:30:38 10° N 22:36:48 77° W 22:38:19 53° SSW
Atlas Centaur 2 3.0 22:30:19 10° WSW 22:38:13 67° S 22:40:54 46° ESE
Cosmos 676 Rocket 3.9 22:38:47 72° E 22:38:47 72° E 22:43:52 10° NNE
Cosmos 2369 Rocket 2.0 22:34:04 10° NNW 22:39:44 75° ENE 22:40:04 72° ESE
Cosmos 1900 4.3 22:40:59 89° WNW 22:40:59 89° WNW 22:46:10 10° NNE
NOAA 11 4.3 22:46:21 57° SW 22:46:59 62° WSW 22:52:21 10° NNW
Cosmos 1953 4.3 22:44:06 10° NNE 22:45:51 21° NNE 22:45:51 21° NNE
Cosmos 1953 Rocket 4.4 22:49:49 45° W 22:49:51 45° W 22:54:06 10° N
Cosmos 2279 Rocket 3.8 22:55:00 10° N 23:01:16 86° W 23:01:43 78° SSW
COSMOS 2406 4.0 23:03:09 39° ENE 23:03:09 39° ENE 23:07:02 10° NNE
Cosmos 2263 4.1 22:58:06 10° NNW 23:03:26 80° N 23:03:26 80° N
Lacrosse 4 Rocket 3.1 23:11:43 29° NW 23:11:43 29° NW 23:15:03 10° N
Cosmos 1932 4.3 23:11:30 87° WNW 23:11:32 87° WNW 23:17:47 10° NNE
ATLAS 3B R/B 3.7 23:04:32 10° SW 23:11:58 50° NW 23:19:18 10° NNE
Cosmos-2242 4.3 23:09:17 10° N 23:12:08 40° N 23:12:08 40° N
ISS 0.3 23:13:44 10° NW 23:14:45 11° NNW 23:15:47 10° N
Cosmos 2180 Rocket 4.5 23:13:08 10° N 23:19:24 74° W 23:19:34 73° WSW
USA 234 3.6 23:20:37 49° SW 23:20:37 49° SW 23:26:52 10° NW
Cosmos 1607 4.5 23:24:11 48° ENE 23:24:11 48° ENE 23:28:44 10° NE
USA 238 DEB 4.0 23:45:39 56° WSW 23:46:55 65° WNW 23:53:57 10° NNE
USA 238 4.0 23:45:48 57° WSW 23:47:00 66° WNW 23:54:02 10° NNE
Cosmos 1943 Rocket 2.8 23:42:21 10° NNW 23:46:33 52° NW 23:46:33 52° NW
H-2A R/B 3.7 23:50:05 24° WNW 23:50:05 24° WNW 23:53:12 10° NW
Meteor 2-5 Rocket 4.3 23:53:38 54° NNE 23:53:38 54° NNE 23:58:05 10° N
Terra 3.9 23:57:19 20° WNW 23:57:19 20° WNW 23:59:40 10° NW
